Weather History for Salem, IL

Change the Weather History Date:

Sunday, January 6, 2013

  Actual Average Record
Temperature  
Mean Temperature 30 °F -  
Max Temperature 39 °F 37 °F 64 °F (2008)
Min Temperature 22 °F 21 °F -10 °F (2014)
Degree Days  
Heating Degree Days 34    
Moisture  
Dew Point 28 °F    
Average Humidity 83    
Maximum Humidity 100    
Minimum Humidity 71    
Precipitation  
Precipitation 0.00 in - - ()
Sea Level Pressure  
Sea Level Pressure 30.23 in    
Wind  
Wind Speed 11 mph (West)    
Max Wind Speed 17 mph    
Max Gust Speed 28 mph    
Visibility 8 miles    
Events      
Averages and records for this station are not official NWS values.
T = Trace of Precipitation, MM = Missing Value Source: NWS Daily Summary

Daily Weather History Graph

Daily Weather History Graph

Search for Another Location

Airport:

Trip Planner

Search our weather history database for the weather conditions in past years. The results will help you decide how hot, cold, wet, or windy it might be!

Date:

Astronomy

Jan. 06, 2013 Rise Set
Actual Time 7:14 AM CST 4:49 PM CST
Civil Twilight 6:44 AM CST 5:19 PM CST
Nautical Twilight 6:11 AM CST 5:52 PM CST
Astronomical Twilight 5:39 AM CST 6:24 PM CST
Moon 1:29 AM CST (1/6) 12:15 PM CST (1/6)
Length of Visible Light 10h 34m
Length of Day
9h 35m
Waning Crescent, 33% of the Moon is Illuminated
Jan 6
Waning Crescent
Jan 11
New
Jan 18
First Quarter
Jan 26
Full
Feb 3
Last Quarter

Hourly Weather History & Observations

Time (CST) Temp. Windchill Dew Point Humidity Pressure Visibility Wind Dir Wind Speed Gust Speed Precip Events Conditions
12:15 AM 37.9 °F 30.0 °F 33.1 °F 83% 30.12 in 10.0 mi SSW 12.7 mph - N/A   Overcast
12:35 AM 38.1 °F 30.2 °F 33.1 °F 82% 30.11 in 10.0 mi SSW 12.7 mph - N/A   Overcast
12:55 AM 38.3 °F 30.5 °F 33.1 °F 81% 30.11 in 10.0 mi SSW 12.7 mph - N/A   Overcast
1:15 AM 38.3 °F 30.5 °F 33.3 °F 82% 30.10 in 10.0 mi SSW 12.7 mph - N/A   Overcast
1:35 AM 38.3 °F 30.9 °F 33.3 °F 82% 30.10 in 10.0 mi SSW 11.5 mph - N/A   Overcast
1:55 AM 38.5 °F 31.1 °F 33.1 °F 81% 30.10 in 10.0 mi SSW 11.5 mph 17.3 mph N/A   Overcast
2:15 AM 39.2 °F 31.2 °F 33.1 °F 79% 30.10 in 10.0 mi SSW 13.8 mph 18.4 mph N/A   Overcast
2:35 AM 39.2 °F 30.8 °F 33.1 °F 79% 30.09 in 10.0 mi SW 15.0 mph 19.6 mph N/A   Overcast
2:55 AM 39.2 °F 31.2 °F 32.9 °F 78% 30.09 in 10.0 mi SW 13.8 mph - N/A   Overcast
3:15 AM 39.2 °F 31.2 °F 33.1 °F 79% 30.09 in 10.0 mi SW 13.8 mph 19.6 mph N/A   Overcast
3:35 AM 39.0 °F 31.8 °F 33.1 °F 79% 30.08 in 10.0 mi SW 11.5 mph - N/A   Overcast
3:55 AM 39.2 °F 32.0 °F 33.8 °F 81% 30.08 in 10.0 mi SW 11.5 mph - N/A   Mostly Cloudy
4:15 AM 39.2 °F 30.8 °F 32.9 °F 78% 30.07 in 10.0 mi SW 15.0 mph - N/A   Mostly Cloudy
4:35 AM 38.5 °F 30.3 °F 32.9 °F 80% 30.07 in 10.0 mi SW 13.8 mph - N/A   Scattered Clouds
4:55 AM 38.3 °F 30.9 °F 32.9 °F 81% 30.07 in 10.0 mi WSW 11.5 mph - N/A   Overcast
5:15 AM 38.1 °F 29.8 °F 32.7 °F 81% 30.07 in 10.0 mi WSW 13.8 mph - N/A   Mostly Cloudy
5:35 AM 37.4 °F 29.8 °F 32.0 °F 81% 30.08 in 10.0 mi West 11.5 mph 17.3 mph N/A   Overcast
5:55 AM 36.9 °F 30.1 °F 32.4 °F 84% 30.09 in 10.0 mi West 9.2 mph - N/A   Overcast
6:15 AM 36.5 °F 28.7 °F 32.0 °F 84% 30.11 in 10.0 mi West 11.5 mph 18.4 mph N/A   Scattered Clouds
6:35 AM 35.8 °F 28.3 °F 31.1 °F 83% 30.12 in 10.0 mi West 10.4 mph - N/A   Clear
6:55 AM 35.1 °F 27.9 °F 31.1 °F 85% 30.13 in 10.0 mi West 9.2 mph - N/A   Clear
7:15 AM 34.0 °F 27.2 °F 30.7 °F 88% 30.13 in 10.0 mi West 8.1 mph - N/A   Clear
7:35 AM 33.8 °F 26.4 °F 30.6 °F 88% 30.14 in 7.0 mi West 9.2 mph - N/A   Scattered Clouds
7:55 AM 34.5 °F 25.7 °F 30.6 °F 85% 30.15 in 10.0 mi West 12.7 mph 19.6 mph N/A   Mostly Cloudy
8:15 AM 34.9 °F 26.2 °F 29.1 °F 79% 30.15 in 10.0 mi West 12.7 mph - N/A   Overcast
8:35 AM 34.7 °F 26.4 °F 29.1 °F 80% 30.17 in 10.0 mi West 11.5 mph - N/A   Overcast
8:55 AM 34.5 °F 25.3 °F 28.0 °F 77% 30.18 in 10.0 mi WNW 13.8 mph 20.7 mph N/A   Overcast
9:15 AM 34.0 °F 23.8 °F 27.5 °F 77% 30.19 in 10.0 mi WNW 16.1 mph - N/A   Overcast
9:35 AM 33.8 °F 25.8 °F 27.9 °F 79% 30.19 in 10.0 mi West 10.4 mph - N/A   Overcast
9:55 AM 33.8 °F 25.8 °F 28.4 °F 81% 30.20 in 10.0 mi West 10.4 mph - N/A   Overcast
10:15 AM 34.2 °F 25.7 °F 27.5 °F 77% 30.21 in 10.0 mi WNW 11.5 mph 20.7 mph N/A   Overcast
10:35 AM 34.0 °F 24.2 °F 27.3 °F 77% 30.21 in 10.0 mi WNW 15.0 mph 19.6 mph N/A   Overcast
10:55 AM 33.8 °F 24.8 °F 26.6 °F 75% 30.22 in 10.0 mi WNW 12.7 mph 25.3 mph N/A   Overcast
11:15 AM 33.4 °F 23.1 °F 26.6 °F 76% 30.22 in 10.0 mi WNW 16.1 mph 25.3 mph N/A   Overcast
11:35 AM 33.4 °F 22.7 °F 26.2 °F 75% 30.22 in 10.0 mi NW 17.3 mph 26.5 mph N/A   Overcast
11:55 AM 33.8 °F 23.2 °F 26.2 °F 74% 30.22 in 10.0 mi NW 17.3 mph 27.6 mph N/A   Overcast
12:15 PM 33.8 °F 23.9 °F 26.2 °F 74% 30.22 in 10.0 mi NW 15.0 mph 21.9 mph N/A   Overcast
12:35 PM 32.7 °F 23.0 °F 25.7 °F 75% 30.22 in 7.0 mi NW 13.8 mph 20.7 mph N/A   Scattered Clouds
12:55 PM 33.8 °F 23.2 °F 25.2 °F 71% 30.23 in 7.0 mi WNW 17.3 mph 25.3 mph N/A   Clear
1:15 PM 33.8 °F 23.5 °F 25.2 °F 71% 30.23 in 7.0 mi WNW 16.1 mph 21.9 mph N/A   Scattered Clouds
1:35 PM 33.6 °F 24.1 °F 25.5 °F 72% 30.24 in 7.0 mi WNW 13.8 mph - N/A   Scattered Clouds
1:55 PM 33.8 °F 23.9 °F 26.2 °F 74% 30.25 in 7.0 mi WNW 15.0 mph - N/A   Scattered Clouds
2:15 PM 34.0 °F 25.5 °F 25.9 °F 72% 30.26 in 7.0 mi WNW 11.5 mph 16.1 mph N/A   Mostly Cloudy
2:35 PM 33.8 °F 25.3 °F 26.1 °F 73% 30.28 in 7.0 mi NW 11.5 mph 16.1 mph N/A   Mostly Cloudy
2:55 PM 33.4 °F 23.9 °F 25.3 °F 72% 30.29 in 10.0 mi WNW 13.8 mph 19.6 mph N/A   Scattered Clouds
3:15 PM 33.8 °F 25.3 °F 25.7 °F 72% 30.30 in 10.0 mi NW 11.5 mph - N/A   Scattered Clouds
3:35 PM 33.8 °F 25.8 °F 25.7 °F 72% 30.31 in 10.0 mi NW 10.4 mph - N/A   Scattered Clouds
3:55 PM 33.4 °F 24.8 °F 25.9 °F 74% 30.32 in 10.0 mi NW 11.5 mph 16.1 mph N/A   Scattered Clouds
4:15 PM 33.3 °F 25.7 °F 25.9 °F 74% 30.33 in 10.0 mi NW 9.2 mph - N/A   Clear
4:35 PM 32.0 °F 26.4 °F 26.6 °F 80% 30.32 in 10.0 mi NNW 5.8 mph - N/A   Clear
4:55 PM 31.8 °F 27.3 °F 25.7 °F 78% 30.33 in 10.0 mi NW 4.6 mph - N/A   Clear
5:15 PM 30.2 °F 25.4 °F 25.3 °F 82% 30.34 in 10.0 mi North 4.6 mph - N/A   Clear
5:35 PM 30.6 °F - 25.0 °F 80% 30.34 in 10.0 mi Calm Calm - N/A   Clear
5:55 PM 30.2 °F - 25.2 °F 82% 30.35 in 10.0 mi Calm Calm - N/A   Clear
6:15 PM 29.7 °F - 25.2 °F 83% 30.35 in 10.0 mi Calm Calm - N/A   Clear
6:35 PM 28.0 °F - 25.3 °F 90% 30.37 in 7.0 mi Calm Calm - N/A   Clear
6:55 PM 27.5 °F - 24.8 °F 90% 30.37 in 7.0 mi Calm Calm - N/A   Clear
7:15 PM 27.5 °F - 24.8 °F 90% 30.37 in 7.0 mi Calm Calm - N/A   Clear
7:35 PM 26.6 °F - 24.3 °F 91% 30.38 in 7.0 mi Calm Calm - N/A   Clear
7:55 PM 26.4 °F - 24.8 °F 94% 30.38 in 5.0 mi Calm Calm - N/A   Clear
8:15 PM 25.3 °F - 25.2 °F 99% 30.39 in 4.0 mi Calm Calm - N/A   Clear
8:35 PM 25.3 °F - 25.3 °F 100% 30.39 in 5.0 mi Calm Calm - N/A   Clear
8:55 PM 25.0 °F - 24.8 °F 99% 30.38 in 5.0 mi Calm Calm - N/A   Clear
9:15 PM 24.4 °F - 24.4 °F 100% 30.38 in 4.0 mi Calm Calm - N/A   Clear
9:35 PM 23.9 °F - 23.9 °F 100% 30.39 in 3.0 mi Calm Calm - N/A   Clear
9:55 PM 23.7 °F - 23.7 °F 100% 30.38 in 3.0 mi Calm Calm - N/A   Clear
10:15 PM 23.0 °F - 23.0 °F 100% 30.39 in 3.0 mi Calm Calm - N/A   Clear
10:35 PM 23.5 °F - 23.5 °F 100% 30.39 in 3.0 mi Calm Calm - N/A   Clear
10:55 PM 23.5 °F - 23.5 °F 100% 30.39 in 3.0 mi Calm Calm - N/A   Clear
11:15 PM 22.1 °F - 22.1 °F 100% 30.39 in 3.0 mi Calm Calm - N/A   Clear
11:35 PM 23.0 °F - 23.0 °F 100% 30.39 in 4.0 mi Calm Calm - N/A   Clear
11:55 PM 22.5 °F - 22.5 °F 100% 30.39 in 4.0 mi Calm Calm - N/A   Clear